Weather reports worldwide

Advertisment
Winterbourne No 2, United Kingdom (99062): temperature & dewpoint: 23.09.2020 01:00:00 - 29.09.2020 01:00:00 (BST)Winterbourne No 2, United Kingdom (99062): temperature -20cm & temperature -100cm: 23.09.2020 01:00:00 - 29.09.2020 01:00:00 (BST)Winterbourne No 2, United Kingdom (99062): precipitation: 23.09.2020 01:00:00 - 29.09.2020 01:00:00 (BST)
Date & Time tt [°C] td [°C] tt -20cm [°C] tt -100cm [°C] rr [mm]
29.09.2020 01:00:00 13,4 12,7 - - 0,0
29.09.2020 00:00:00 13,6 12,9 - - 0,0
28.09.2020 23:00:00 13,6 12,8 - - 0,6
28.09.2020 22:00:00 14,3 13,5 - - 0,2
28.09.2020 21:00:00 14,4 13,0 - - 0,4
28.09.2020 20:00:00 15,1 12,2 - - 0,0
28.09.2020 19:00:00 15,2 12,1 - - 0,0
28.09.2020 18:00:00 15,6 11,8 - - 0,0
28.09.2020 17:00:00 16,1 11,9 - - 0,0
28.09.2020 16:00:00 17,1 11,9 - - 0,0
28.09.2020 15:00:00 - - - - -
28.09.2020 14:00:00 14,4 10,7 - - 0,0
28.09.2020 13:00:00 13,4 9,8 - - 0,0
28.09.2020 12:00:00 12,4 9,0 - - 0,0
28.09.2020 11:00:00 11,8 8,6 - - 0,0
28.09.2020 10:00:00 8,2 8,1 13,2 14,7 0,0
28.09.2020 09:00:00 5,6 5,6 - - 0,0
28.09.2020 08:00:00 3,5 3,5 - - 0,0
28.09.2020 07:00:00 1,8 1,6 - - 0,0
28.09.2020 06:00:00 1,5 1,2 - - 0,0
28.09.2020 05:00:00 2,1 1,7 - - 0,0
28.09.2020 04:00:00 2,2 1,8 - - 0,0
28.09.2020 03:00:00 2,8 2,2 - - 0,0
28.09.2020 02:00:00 3,8 3,1 - - 0,0
28.09.2020 01:00:00 4,0 3,1 - - 0,0
28.09.2020 00:00:00 4,5 3,1 - - 0,0
27.09.2020 23:00:00 5,6 3,6 - - 0,0
27.09.2020 22:00:00 6,9 3,5 - - 0,0
27.09.2020 21:00:00 8,9 3,6 - - 0,0
27.09.2020 20:00:00 9,9 4,0 - - 0,0
27.09.2020 19:00:00 11,2 3,4 - - 0,0
27.09.2020 18:00:00 12,5 3,6 - - 0,0
27.09.2020 17:00:00 14,3 3,5 - - 0,0
27.09.2020 16:00:00 14,2 2,9 - - 0,0
27.09.2020 15:00:00 14,1 3,3 - - 0,0
27.09.2020 14:00:00 14,0 4,0 - - 0,0
27.09.2020 13:00:00 12,5 4,2 - - 0,0
27.09.2020 12:00:00 11,8 4,8 - - 0,0
27.09.2020 11:00:00 10,4 4,6 - - 0,0
27.09.2020 10:00:00 8,8 4,3 - - 0,0
27.09.2020 09:00:00 7,7 3,8 - - 0,0
27.09.2020 08:00:00 6,8 3,2 - - 0,0
27.09.2020 07:00:00 7,1 3,3 - - 0,0
27.09.2020 06:00:00 7,7 3,4 - - 0,0
27.09.2020 05:00:00 8,0 3,5 - - 0,0
27.09.2020 04:00:00 8,0 3,5 - - 0,0
27.09.2020 03:00:00 8,8 3,6 - - 0,0
27.09.2020 02:00:00 9,3 3,8 - - 0,0
27.09.2020 01:00:00 9,8 3,8 - - 0,0
27.09.2020 00:00:00 10,0 3,4 - - 0,0
26.09.2020 23:00:00 10,2 3,9 - - 0,0
26.09.2020 22:00:00 10,4 4,4 - - 0,0
26.09.2020 21:00:00 10,6 5,0 - - 0,0
26.09.2020 20:00:00 10,7 4,9 - - 0,0
26.09.2020 19:00:00 10,8 4,7 - - 0,0
26.09.2020 18:00:00 11,1 4,7 - - 0,0
26.09.2020 17:00:00 11,3 4,2 - - 0,0
26.09.2020 16:00:00 11,4 3,8 - - 0,0
26.09.2020 15:00:00 11,2 3,3 - - 0,0
26.09.2020 14:00:00 11,7 3,3 - - 0,0
26.09.2020 13:00:00 11,6 2,3 - - 0,0
26.09.2020 12:00:00 10,9 2,4 - - 0,0
26.09.2020 11:00:00 9,8 2,2 - - 0,0
26.09.2020 10:00:00 8,1 1,6 - - 0,0
26.09.2020 09:00:00 6,5 1,0 - - 0,0
26.09.2020 08:00:00 5,1 1,2 - - 0,0
26.09.2020 07:00:00 4,7 1,3 - - 0,0
26.09.2020 06:00:00 5,2 2,2 - - 0,0
26.09.2020 05:00:00 5,3 2,5 - - 0,0
26.09.2020 04:00:00 5,7 3,0 - - 0,0
26.09.2020 03:00:00 6,3 3,9 - - 0,0
26.09.2020 02:00:00 7,0 4,7 - - 0,0
26.09.2020 01:00:00 7,5 5,4 - - 0,0
26.09.2020 00:00:00 7,7 5,4 - - 0,0
25.09.2020 23:00:00 8,7 5,3 - - 0,0
25.09.2020 22:00:00 9,6 5,2 - - 0,0
25.09.2020 21:00:00 9,8 5,7 - - 0,0
25.09.2020 20:00:00 10,6 5,3 - - 0,0
25.09.2020 19:00:00 10,8 3,5 - - 0,0
25.09.2020 18:00:00 11,7 3,5 - - 0,0
25.09.2020 17:00:00 12,7 4,1 - - 0,0
25.09.2020 16:00:00 13,2 3,9 - - 0,0
25.09.2020 15:00:00 14,0 3,2 - - 0,0
25.09.2020 14:00:00 13,0 2,9 - - 0,0
25.09.2020 13:00:00 12,3 3,9 - - 0,0
25.09.2020 12:00:00 11,4 3,1 - - 0,0
25.09.2020 11:00:00 11,2 4,1 - - 0,0
25.09.2020 10:00:00 9,5 4,1 14,5 15,2 0,0
25.09.2020 09:00:00 8,1 4,4 - - 0,0
25.09.2020 08:00:00 6,8 3,8 - - 0,0
25.09.2020 07:00:00 6,7 4,2 - - 0,0
25.09.2020 06:00:00 6,7 5,1 - - 0,0
25.09.2020 05:00:00 7,0 6,0 - - 0,0
25.09.2020 04:00:00 6,4 5,6 - - 0,0
25.09.2020 03:00:00 6,2 5,6 - - 0,0
25.09.2020 02:00:00 6,4 6,2 - - 0,0
25.09.2020 01:00:00 5,6 5,4 - - 0,0
25.09.2020 00:00:00 6,1 6,0 - - 0,0
24.09.2020 23:00:00 5,8 5,5 - - 0,0
24.09.2020 22:00:00 6,4 6,1 - - 0,0
24.09.2020 21:00:00 6,8 6,4 - - 0,0
24.09.2020 20:00:00 7,0 6,4 - - 0,0
24.09.2020 19:00:00 7,7 6,7 - - 0,0
24.09.2020 18:00:00 8,8 6,8 - - 0,0
24.09.2020 17:00:00 9,9 7,9 - - 0,8
24.09.2020 16:00:00 9,7 7,1 - - 1,2
24.09.2020 15:00:00 11,7 4,9 - - 0,0
24.09.2020 14:00:00 13,0 6,7 - - 0,0
24.09.2020 13:00:00 11,1 5,5 - - 0,0
24.09.2020 12:00:00 11,2 6,8 - - 0,2
24.09.2020 11:00:00 9,3 6,8 - - 0,0
24.09.2020 10:00:00 10,4 6,1 15,2 15,4 0,0
24.09.2020 09:00:00 9,5 7,5 - - 0,0
24.09.2020 08:00:00 8,9 7,9 - - 0,0
24.09.2020 07:00:00 8,3 7,6 - - 0,4
24.09.2020 06:00:00 7,7 7,1 - - 0,0
24.09.2020 05:00:00 7,4 6,7 - - 0,2
24.09.2020 04:00:00 7,2 6,3 - - 0,0
24.09.2020 03:00:00 6,6 5,9 - - 0,0
24.09.2020 02:00:00 6,7 5,8 - - 0,0
24.09.2020 01:00:00 7,5 6,4 - - 0,0
24.09.2020 00:00:00 8,2 6,9 - - 0,0
23.09.2020 23:00:00 9,0 7,7 - - 0,0
23.09.2020 22:00:00 9,9 8,1 - - 0,0
23.09.2020 21:00:00 10,3 7,1 - - 0,0
23.09.2020 20:00:00 10,6 7,5 - - 0,0
23.09.2020 19:00:00 11,5 8,0 - - 0,0
23.09.2020 18:00:00 12,2 9,0 - - 0,0
23.09.2020 17:00:00 12,4 9,0 - - 0,0
23.09.2020 16:00:00 13,5 10,7 - - 0,0
23.09.2020 15:00:00 13,1 11,2 - - 0,0
23.09.2020 14:00:00 13,0 11,6 - - 0,2
23.09.2020 13:00:00 12,2 11,4 - - 1,2
23.09.2020 12:00:00 13,8 13,2 - - 2,6
23.09.2020 11:00:00 13,9 12,8 - - 0,2
23.09.2020 10:00:00 14,2 13,1 15,9 15,4 0,0
23.09.2020 09:00:00 14,1 13,1 - - 0,2
23.09.2020 08:00:00 14,1 13,3 - - 0,0
23.09.2020 07:00:00 14,0 13,3 - - 0,0
23.09.2020 06:00:00 13,9 13,1 - - 0,0
23.09.2020 05:00:00 14,2 13,5 - - 0,4
23.09.2020 04:00:00 14,5 13,1 - - 0,0
23.09.2020 03:00:00 14,5 12,9 - - 0,0
23.09.2020 02:00:00 14,7 13,1 - - 0,0
23.09.2020 01:00:00 14,8 13,1 - - 0,0

tt = temperature
td = dewpoint
tt -20cm = temperature -20cm
tt -100cm = temperature -100cm
rr = precipitation

Next stations